K6OUA-11 Weather Reports


Display with metric or nautical units.
time (UTC)temp
F
wind
direction
speed
MPH
gust
MPH
rain 1hr
in
rain 24hr
in
rain mn
in
humidity
%
barometer
mb
20200226173743 73 135 5.0 10.0 0.00 0.00 0.00 13 1020.5
20200226173607 73 135 4.0 9.0 0.00 0.00 0.00 13 1020.6
20200226173441 73 135 4.0 9.0 0.00 0.00 0.00 13 1020.6
20200226173302 73 157 9.0 9.0 0.00 0.00 0.00 13 1020.5
20200226173139 73 157 9.0 9.0 0.00 0.00 0.00 13 1020.5
20200226172703 72 180 5.0 11.0 0.00 0.00 0.00 13 1020.5
20200226172537 72 180 5.0 11.0 0.00 0.00 0.00 13 1020.5
20200226172357 72 180 7.0 11.0 0.00 0.00 0.00 13 1020.5
20200226172238 72 180 7.0 11.0 0.00 0.00 0.00 13 1020.5
20200226171755 71 157 4.0 9.0 0.00 0.00 0.00 13 1020.5
20200226171636 71 157 4.0 9.0 0.00 0.00 0.00 13 1020.5
20200226171135 71 157 4.0 13.0 0.00 0.00 0.00 13 1020.5
20200226171032 71 157 4.0 13.0 0.00 0.00 0.00 13 1020.5
20200226170732 71 157 7.0 10.0 0.00 0.00 0.00 13 1020.4
20200226170246 70 157 13.0 14.0 0.00 0.00 0.00 13 1020.3
20200226170128 70 157 13.0 14.0 0.00 0.00 0.00 13 1020.3
20200226165630 70 157 4.0 11.0 0.00 0.00 0.00 13 1020.6
20200226165528 70 157 4.0 11.0 0.00 0.00 0.00 13 1020.6
20200226165046 69 135 3.0 9.0 0.00 0.00 0.00 13 1020.5
20200226165038 70 157 8.0 13.0 0.00 0.00 0.00 13 1020.4
20200226164924 70 157 8.0 13.0 0.00 0.00 0.00 13 1020.4
20200226164752 69 180 7.0 13.0 0.00 0.00 0.00 13 1020.5
20200226164625 69 180 7.0 13.0 0.00 0.00 0.00 13 1020.5
20200226164421 69 87 7.0 10.0 0.00 0.00 0.00 13 1020.5
20200226164322 69 87 7.0 10.0 0.00 0.00 0.00 13 1020.5
20200226164022 69 225 7.0 12.0 0.00 0.00 0.00 14 1020.4
20200226163720 69 135 3.0 9.0 0.00 0.00 0.00 13 1020.5
20200226163512 69 135 6.0 11.0 0.00 0.00 0.00 13 1020.5
20200226163418 69 135 6.0 11.0 0.00 0.00 0.00 13 1020.5
20200226163119 68 135 6.0 9.0 0.00 0.00 0.00 14 1020.6
20200226162818 68 135 3.0 14.0 0.00 0.00 0.00 13 1020.6
20200226162650 68 135 9.0 9.0 0.00 0.00 0.00 14 1020.5
20200226162515 68 135 9.0 9.0 0.00 0.00 0.00 14 1020.5
20200226162310 68 135 7.0 16.0 0.00 0.00 0.00 14 1020.6
20200226162216 68 135 7.0 16.0 0.00 0.00 0.00 14 1020.6
20200226162045 67 135 10.0 11.0 0.00 0.00 0.00 14 1020.4
20200226162023 68 135 10.0 13.0 0.00 0.00 0.00 13 1020.5
20200226161913 68 135 10.0 13.0 0.00 0.00 0.00 13 1020.5
20200226161154 68 135 9.0 14.0 0.00 0.00 0.00 14 1020.6
20200226161010 68 135 9.0 14.0 0.00 0.00 0.00 14 1020.6
20200226160832 67 135 10.0 11.0 0.00 0.00 0.00 14 1020.4
20200226160710 67 135 10.0 11.0 0.00 0.00 0.00 14 1020.4
20200226160109 67 135 0.0 5.0 0.00 0.00 0.00 15 1020.6
20200226155807 66 135 0.0 7.0 0.00 0.00 0.00 14 1020.6
20200226155629 66 135 0.0 6.0 0.00 0.00 0.00 14 1020.7
20200226155510 66 135 0.0 6.0 0.00 0.00 0.00 14 1020.7
20200226155318 66 135 2.0 17.0 0.00 0.00 0.00 14 1020.7
20200226155205 66 135 2.0 17.0 0.00 0.00 0.00 14 1020.7
20200226155045 64 135 1.0 6.0 0.00 0.00 0.00 15 1020.8
20200226154707 65 135 6.0 11.0 0.00 0.00 0.00 14 1020.8
20200226154601 65 135 6.0 11.0 0.00 0.00 0.00 14 1020.8
20200226153802 64 135 1.0 6.0 0.00 0.00 0.00 15 1020.8
20200226153658 64 135 1.0 6.0 0.00 0.00 0.00 15 1020.8
20200226153358 64 135 5.0 9.0 0.00 0.00 0.00 14 1020.7
20200226153207 64 135 2.0 14.0 0.00 0.00 0.00 14 1021.1
20200226153055 64 135 2.0 14.0 0.00 0.00 0.00 14 1021.1
20200226152936 63 135 1.0 9.0 0.00 0.00 0.00 15 1020.6
20200226152243 63 135 1.0 9.0 0.00 0.00 0.00 15 1020.6
20200226152153 63 135 1.0 9.0 0.00 0.00 0.00 15 1020.6
20200226152018 62 135 4.0 10.0 0.00 0.00 0.00 15 1020.7
20200226151851 62 135 4.0 10.0 0.00 0.00 0.00 15 1020.7
20200226151553 62 135 10.0 10.0 0.00 0.00 0.00 14 1020.4
20200226151424 62 135 6.0 8.0 0.00 0.00 0.00 14 1020.4
20200226151250 62 135 6.0 8.0 0.00 0.00 0.00 14 1020.4
20200226150949 61 135 1.0 10.0 0.00 0.00 0.00 14 1020.6
20200226150347 61 135 4.0 8.0 0.00 0.00 0.00 13 1020.4
20200226150209 60 135 5.0 5.0 0.00 0.00 0.00 14 1020.5
20200226150050 60 135 5.0 5.0 0.00 0.00 0.00 14 1020.5
20200226145534 60 135 7.0 9.0 0.00 0.00 0.00 14 1020.5
20200226145442 60 135 7.0 9.0 0.00 0.00 0.00 14 1020.5
20200226145044 60 135 7.0 12.0 0.00 0.00 0.00 13 1020.3
20200226145009 60 135 8.0 10.0 0.00 0.00 0.00 13 1020.4
20200226144840 60 135 8.0 10.0 0.00 0.00 0.00 13 1020.4
20200226144331 59 135 10.0 10.0 0.00 0.00 0.00 13 1020.4
20200226144239 59 135 10.0 10.0 0.00 0.00 0.00 13 1020.4
20200226144059 60 135 5.0 10.0 0.00 0.00 0.00 13 1020.4
20200226143936 60 135 5.0 10.0 0.00 0.00 0.00 13 1020.4
20200226143746 60 135 7.0 12.0 0.00 0.00 0.00 13 1020.3
20200226143635 60 135 7.0 12.0 0.00 0.00 0.00 13 1020.3
20200226143459 60 135 4.0 12.0 0.00 0.00 0.00 13 1020.3
20200226143336 60 135 4.0 12.0 0.00 0.00 0.00 13 1020.3
20200226143139 60 135 5.0 11.0 0.00 0.00 0.00 12 1020.2
20200226143033 60 135 5.0 11.0 0.00 0.00 0.00 12 1020.2
20200226142732 60 135 6.0 9.0 0.00 0.00 0.00 13 1020.2
20200226142609 60 135 4.0 9.0 0.00 0.00 0.00 12 1020.2
20200226142431 60 135 4.0 9.0 0.00 0.00 0.00 12 1020.2
20200226141651 60 135 4.0 16.0 0.00 0.00 0.00 12 1020.0
20200226141528 60 135 4.0 16.0 0.00 0.00 0.00 12 1020.0
20200226141402 60 135 11.0 11.0 0.00 0.00 0.00 12 1020.0
20200226141226 60 135 11.0 11.0 0.00 0.00 0.00 12 1020.0
20200226141035 60 135 9.0 11.0 0.00 0.00 0.00 12 1020.0
20200226140927 60 135 9.0 11.0 0.00 0.00 0.00 12 1020.0
20200226140626 60 135 9.0 11.0 0.00 0.00 0.00 11 1019.9
20200226140419 60 135 6.0 11.0 0.00 0.00 0.00 12 1020.0
20200226140323 60 135 6.0 11.0 0.00 0.00 0.00 12 1020.0
20200226135932 60 135 6.0 12.0 0.00 0.00 0.00 12 1019.9
20200226135835 60 135 4.0 12.0 0.00 0.00 0.00 12 1020.0
20200226135721 60 135 4.0 12.0 0.00 0.00 0.00 12 1020.0
20200226135519 60 135 7.0 12.0 0.00 0.00 0.00 12 1019.8
20200226135420 60 135 7.0 12.0 0.00 0.00 0.00 12 1019.8
20200226135220 60 135 6.0 12.0 0.00 0.00 0.00 12 1019.9
20200226135129 60 135 6.0 12.0 0.00 0.00 0.00 12 1019.9
20200226134942 60 135 8.0 11.0 0.00 0.00 0.00 12 1019.9
20200226134818 60 135 8.0 11.0 0.00 0.00 0.00 12 1019.9
20200226134615 60 135 3.0 9.0 0.00 0.00 0.00 12 1019.9
20200226134543 60 135 3.0 9.0 0.00 0.00 0.00 12 1019.9
20200226134507 60 135 3.0 9.0 0.00 0.00 0.00 12 1019.9
20200226134430 60 135 3.0 9.0 0.00 0.00 0.00 12 1019.9
20200226134349 60 135 3.0 9.0 0.00 0.00 0.00 12 1019.9
20200226134305 60 135 4.0 11.0 0.00 0.00 0.00 12 1019.8
20200226134219 60 135 3.0 9.0 0.00 0.00 0.00 12 1019.9
20200226134217 60 135 5.0 9.0 0.00 0.00 0.00 12 1019.8
20200226134128 60 135 8.0 13.0 0.00 0.00 0.00 12 1019.9
20200226134035 60 135 4.0 11.0 0.00 0.00 0.00 12 1019.8
20200226133935 60 135 3.0 9.0 0.00 0.00 0.00 12 1019.9
20200226133903 60 135 4.0 11.0 0.00 0.00 0.00 12 1019.8
20200226133832 60 135 3.0 9.0 0.00 0.00 0.00 12 1019.9
20200226133759 60 135 3.0 9.0 0.00 0.00 0.00 12 1019.9
20200226133724 60 135 12.0 12.0 0.00 0.00 0.00 12 1019.9
20200226133647 60 135 8.0 13.0 0.00 0.00 0.00 12 1019.9
20200226133611 60 135 3.0 9.0 0.00 0.00 0.00 12 1019.9
20200226133533 60 135 12.0 12.0 0.00 0.00 0.00 12 1019.9
20200226133453 60 135 3.0 9.0 0.00 0.00 0.00 12 1019.9
20200226133411 60 135 3.0 9.0 0.00 0.00 0.00 12 1019.9
20200226133329 60 135 3.0 9.0 0.00 0.00 0.00 12 1019.9
20200226133313 60 135 12.0 12.0 0.00 0.00 0.00 12 1019.9
20200226133244 60 135 3.0 9.0 0.00 0.00 0.00 12 1019.9
20200226133156 60 135 8.0 13.0 0.00 0.00 0.00 12 1019.9
20200226133107 60 135 8.0 13.0 0.00 0.00 0.00 12 1019.9
20200226133015 60 135 8.0 13.0 0.00 0.00 0.00 12 1019.9
20200226133012 60 135 3.0 9.0 0.00 0.00 0.00 12 1019.9
20200226132923 60 135 8.0 13.0 0.00 0.00 0.00 12 1019.9
20200226132827 60 135 4.0 11.0 0.00 0.00 0.00 12 1019.8
20200226132729 60 135 8.0 13.0 0.00 0.00 0.00 12 1019.9
20200226132710 60 135 6.0 10.0 0.00 0.00 0.00 12 1019.9
20200226132628 60 135 4.0 11.0 0.00 0.00 0.00 12 1019.8
20200226132527 60 135 4.0 11.0 0.00 0.00 0.00 12 1019.8
20200226132423 60 135 8.0 13.0 0.00 0.00 0.00 12 1019.9
20200226132316 60 135 8.0 13.0 0.00 0.00 0.00 12 1019.9
20200226132205 60 135 4.0 11.0 0.00 0.00 0.00 12 1019.8
20200226132111 60 135 8.0 13.0 0.00 0.00 0.00 12 1019.9
20200226132051 60 135 4.0 11.0 0.00 0.00 0.00 12 1019.8
20200226131934 60 135 4.0 11.0 0.00 0.00 0.00 12 1019.8
20200226131814 60 135 4.0 11.0 0.00 0.00 0.00 12 1019.8
20200226131652 60 135 4.0 11.0 0.00 0.00 0.00 12 1019.8
20200226131527 60 135 4.0 11.0 0.00 0.00 0.00 12 1019.8
20200226131507 60 135 6.0 11.0 0.00 0.00 0.00 12 1019.8
20200226131357 60 135 4.0 11.0 0.00 0.00 0.00 12 1019.8
20200226131225 60 135 4.0 11.0 0.00 0.00 0.00 12 1019.8
20200226131048 60 135 4.0 11.0 0.00 0.00 0.00 12 1019.8
20200226130907 60 135 4.0 11.0 0.00 0.00 0.00 12 1019.8
20200226130604 60 135 8.0 11.0 0.00 0.00 0.00 12 1019.9
20200226130301 61 135 5.0 10.0 0.00 0.00 0.00 12 1019.8
20200226130002 61 135 7.0 10.0 0.00 0.00 0.00 12 1019.7
20200226125929 61 135 6.0 11.0 0.00 0.00 0.00 12 1019.6
20200226125057 61 135 6.0 11.0 0.00 0.00 0.00 12 1019.6
20200226125044 61 135 7.0 12.0 0.00 0.00 0.00 11 1019.2
20200226124905 61 135 7.0 11.0 0.00 0.00 0.00 11 1019.6
20200226124755 61 135 7.0 11.0 0.00 0.00 0.00 11 1019.6
20200226124456 61 135 4.0 11.0 0.00 0.00 0.00 12 1019.5
20200226124155 61 135 5.0 7.0 0.00 0.00 0.00 12 1019.5
20200226123853 61 135 5.0 8.0 0.00 0.00 0.00 12 1019.3
20200226123553 61 135 7.0 12.0 0.00 0.00 0.00 11 1019.2
20200226122949 61 135 4.0 9.0 0.00 0.00 0.00 11 1019.3
20200226122928 62 135 6.0 13.0 0.00 0.00 0.00 11 1019.2
20200226122651 62 135 6.0 9.0 0.00 0.00 0.00 12 1019.3
20200226122046 62 135 6.0 13.0 0.00 0.00 0.00 11 1019.2
20200226121142 61 135 10.0 12.0 0.00 0.00 0.00 11 1019.1
20200226120542 61 135 6.0 11.0 0.00 0.00 0.00 11 1019.1
20200226120041 61 135 8.0 9.0 0.00 0.00 0.00 12 1018.9
20200226115940 61 135 8.0 9.0 0.00 0.00 0.00 12 1018.9
20200226115639 61 135 7.0 8.0 0.00 0.00 0.00 12 1018.9
20200226115338 61 135 7.0 10.0 0.00 0.00 0.00 12 1018.9
20200226114733 60 135 4.0 6.0 0.00 0.00 0.00 13 1018.9
20200226114524 60 135 6.0 7.0 0.00 0.00 0.00 13 1018.8
20200226114434 60 135 6.0 7.0 0.00 0.00 0.00 13 1018.8
20200226114229 60 135 4.0 7.0 0.00 0.00 0.00 13 1018.9
20200226114133 60 135 4.0 7.0 0.00 0.00 0.00 13 1018.9
20200226113647 60 135 4.0 6.0 0.00 0.00 0.00 13 1018.8
20200226113529 60 135 4.0 6.0 0.00 0.00 0.00 13 1018.8
20200226113314 60 135 3.0 6.0 0.00 0.00 0.00 13 1018.6
20200226113230 60 135 3.0 6.0 0.00 0.00 0.00 13 1018.6
20200226112929 60 135 4.0 5.0 0.00 0.00 0.00 13 1018.7
20200226112402 60 90 2.0 5.0 0.00 0.00 0.00 13 1018.6
20200226112326 60 90 2.0 5.0 0.00 0.00 0.00 13 1018.6
20200226112059 60 315 2.0 6.0 0.00 0.00 0.00 13 1018.7
20200226112023 60 315 2.0 6.0 0.00 0.00 0.00 13 1018.7
20200226111421 60 315 5.0 6.0 0.00 0.00 0.00 13 1018.6
20200226111204 60 315 5.0 6.0 0.00 0.00 0.00 13 1018.5
20200226111120 60 315 5.0 6.0 0.00 0.00 0.00 13 1018.5
20200226110854 60 315 3.0 5.0 0.00 0.00 0.00 13 1018.5
20200226110819 60 315 3.0 5.0 0.00 0.00 0.00 13 1018.5
20200226110518 60 315 5.0 5.0 0.00 0.00 0.00 13 1018.6
20200226105046 60 315 2.0 4.0 0.00 0.00 0.00 13 1018.6
20200226105017 60 315 1.0 2.0 0.00 0.00 0.00 14 1018.5
20200226104806 60 315 2.0 2.0 0.00 0.00 0.00 14 1018.7
20200226104713 60 315 2.0 2.0 0.00 0.00 0.00 14 1018.7
20200226104448 60 315 2.0 3.0 0.00 0.00 0.00 13 1018.6
20200226104412 60 315 2.0 3.0 0.00 0.00 0.00 13 1018.6
20200226104152 60 315 3.0 3.0 0.00 0.00 0.00 14 1018.6
20200226104109 60 315 3.0 3.0 0.00 0.00 0.00 14 1018.6
20200226103808 60 315 2.0 4.0 0.00 0.00 0.00 13 1018.6
20200226103508 60 315 4.0 6.0 0.00 0.00 0.00 13 1018.6
20200226103206 60 315 4.0 6.0 0.00 0.00 0.00 14 1018.6
20200226102720 59 315 2.0 4.0 0.00 0.00 0.00 13 1018.7
20200226102604 59 315 2.0 4.0 0.00 0.00 0.00 13 1018.7
20200226102003 59 315 3.0 4.0 0.00 0.00 0.00 13 1018.6
20200226101359 59 315 2.0 3.0 0.00 0.00 0.00 14 1018.9
20200226101145 59 315 2.0 4.0 0.00 0.00 0.00 14 1018.7
20200226101058 59 315 2.0 4.0 0.00 0.00 0.00 14 1018.7
20200226100759 60 315 4.0 4.0 0.00 0.00 0.00 14 1018.8
20200226100548 60 315 2.0 4.0 0.00 0.00 0.00 14 1018.8
20200226100456 60 315 2.0 4.0 0.00 0.00 0.00 14 1018.8
20200226100155 60 315 3.0 5.0 0.00 0.00 0.00 14 1018.8
20200226095941 60 315 4.0 5.0 0.00 0.00 0.00 14 1018.8
20200226095854 60 315 4.0 5.0 0.00 0.00 0.00 14 1018.8
20200226095704 60 315 3.0 5.0 0.00 0.00 0.00 14 1018.7
20200226095552 60 315 3.0 5.0 0.00 0.00 0.00 14 1018.7
20200226095045 60 315 2.0 4.0 0.00 0.00 0.00 14 1018.9
20200226094741 60 315 2.0 5.0 0.00 0.00 0.00 14 1018.9
20200226094651 60 315 2.0 5.0 0.00 0.00 0.00 14 1018.9
20200226094144 60 315 2.0 5.0 0.00 0.00 0.00 14 1018.8
20200226094047 60 315 2.0 5.0 0.00 0.00 0.00 14 1018.8
20200226093746 60 315 2.0 4.0 0.00 0.00 0.00 14 1018.9
20200226093235 60 315 3.0 6.0 0.00 0.00 0.00 14 1018.7
20200226093144 60 315 3.0 6.0 0.00 0.00 0.00 14 1018.7
20200226092843 60 315 4.0 6.0 0.00 0.00 0.00 14 1018.8
20200226092708 60 270 3.0 3.0 0.00 0.00 0.00 14 1018.8
20200226092700 60 315 5.0 6.0 0.00 0.00 0.00 14 1018.7
20200226092638 59 292 2.0 4.0 0.00 0.00 0.00 15 1018.9
20200226092631 60 315 6.0 6.0 0.00 0.00 0.00 13 1018.8
20200226092620 59 292 4.0 4.0 0.00 0.00 0.00 14 1018.8
20200226092607 60 270 1.0 3.0 0.00 0.00 0.00 14 1018.9
20200226092559 60 315 5.0 6.0 0.00 0.00 0.00 14 1018.7
20200226092544 60 315 6.0 6.0 0.00 0.00 0.00 13 1018.8
20200226092520 59 292 3.0 6.0 0.00 0.00 0.00 14 1018.8
20200226092506 60 270 1.0 3.0 0.00 0.00 0.00 14 1019.0
20200226092458 60 315 5.0 6.0 0.00 0.00 0.00 14 1018.7
20200226092419 59 292 4.0 4.0 0.00 0.00 0.00 14 1018.8
20200226092406 59 292 2.0 4.0 0.00 0.00 0.00 15 1018.9
20200226092327 60 315 5.0 6.0 0.00 0.00 0.00 14 1018.7
20200226092318 59 292 3.0 6.0 0.00 0.00 0.00 14 1018.8
20200226092306 59 292 3.0 5.0 0.00 0.00 0.00 15 1019.0
20200226092240 60 315 5.0 6.0 0.00 0.00 0.00 14 1018.7
20200226092218 59 292 3.0 6.0 0.00 0.00 0.00 14 1018.8
20200226092206 60 270 3.0 3.0 0.00 0.00 0.00 14 1018.8
20200226092146 59 292 3.0 6.0 0.00 0.00 0.00 14 1018.8
20200226092134 60 270 1.0 3.0 0.00 0.00 0.00 14 1019.0
20200226092115 59 292 3.0 6.0 0.00 0.00 0.00 14 1018.8
20200226092104 59 292 3.0 5.0 0.00 0.00 0.00 15 1019.0
20200226092041 59 292 4.0 4.0 0.00 0.00 0.00 14 1018.8
20200226092030 60 270 1.0 3.0 0.00 0.00 0.00 14 1018.9
20200226092008 59 292 3.0 6.0 0.00 0.00 0.00 14 1018.8
20200226091957 59 292 3.0 5.0 0.00 0.00 0.00 15 1019.0
20200226091941 60 315 6.0 6.0 0.00 0.00 0.00 14 1018.8
20200226091933 59 292 3.0 6.0 0.00 0.00 0.00 14 1018.8
20200226091925 60 270 1.0 3.0 0.00 0.00 0.00 14 1019.0
20200226091857 59 292 3.0 6.0 0.00 0.00 0.00 14 1018.8
20200226091850 59 292 2.0 4.0 0.00 0.00 0.00 15 1018.9
20200226091821 59 292 3.0 6.0 0.00 0.00 0.00 14 1018.8
20200226091813 59 292 3.0 5.0 0.00 0.00 0.00 15 1019.0
20200226091745 59 292 3.0 6.0 0.00 0.00 0.00 14 1018.8
20200226091737 60 270 3.0 3.0 0.00 0.00 0.00 14 1018.8
20200226091713 59 292 3.0 6.0 0.00 0.00 0.00 14 1018.8
20200226091703 59 292 3.0 5.0 0.00 0.00 0.00 15 1019.0
20200226091640 60 315 5.0 6.0 0.00 0.00 0.00 14 1018.7
20200226091637 59 292 3.0 6.0 0.00 0.00 0.00 14 1018.8
20200226091628 60 270 3.0 3.0 0.00 0.00 0.00 14 1018.8
20200226091601 59 292 4.0 4.0 0.00 0.00 0.00 14 1018.8
20200226091551 60 270 1.0 3.0 0.00 0.00 0.00 14 1018.9
20200226091530 59 292 4.0 4.0 0.00 0.00 0.00 14 1018.8
20200226091519 59 292 3.0 5.0 0.00 0.00 0.00 15 1019.0
20200226091459 59 292 3.0 6.0 0.00 0.00 0.00 14 1018.8
20200226091448 59 292 3.0 5.0 0.00 0.00 0.00 15 1019.0
20200226091427 59 292 3.0 6.0 0.00 0.00 0.00 14 1018.8
20200226091416 60 270 3.0 3.0 0.00 0.00 0.00 14 1018.8
20200226091356 59 292 3.0 6.0 0.00 0.00 0.00 14 1018.8
20200226091345 60 270 1.0 3.0 0.00 0.00 0.00 14 1018.9
20200226091323 59 292 3.0 6.0 0.00 0.00 0.00 14 1018.8
20200226091310 60 270 1.0 3.0 0.00 0.00 0.00 14 1019.0
20200226091246 59 292 3.0 6.0 0.00 0.00 0.00 14 1018.8
20200226091234 60 270 1.0 3.0 0.00 0.00 0.00 14 1018.9
20200226091208 59 292 4.0 4.0 0.00 0.00 0.00 14 1018.8
20200226091154 60 270 3.0 3.0 0.00 0.00 0.00 14 1018.8
20200226091127 59 292 4.0 4.0 0.00 0.00 0.00 14 1018.8
20200226091113 59 292 2.0 4.0 0.00 0.00 0.00 15 1018.9
20200226091046 59 292 4.0 4.0 0.00 0.00 0.00 14 1018.8
20200226091036 59 315 3.0 5.0 0.00 0.00 0.00 14 1018.8
20200226091032 60 270 1.0 3.0 0.00 0.00 0.00 14 1018.9
20200226091005 59 292 4.0 4.0 0.00 0.00 0.00 14 1018.8
20200226090951 60 270 1.0 3.0 0.00 0.00 0.00 14 1019.0
20200226090923 59 292 4.0 4.0 0.00 0.00 0.00 14 1018.8
20200226090908 59 292 3.0 5.0 0.00 0.00 0.00 15 1019.0
20200226090853 59 292 3.0 6.0 0.00 0.00 0.00 14 1018.8
20200226090837 60 270 3.0 3.0 0.00 0.00 0.00 14 1018.8
20200226090822 59 292 4.0 4.0 0.00 0.00 0.00 14 1018.8
20200226090805 60 270 1.0 3.0 0.00 0.00 0.00 14 1019.0
20200226090748 59 292 4.0 4.0 0.00 0.00 0.00 14 1018.8
20200226090731 60 270 3.0 3.0 0.00 0.00 0.00 14 1018.8
20200226090714 59 292 3.0 6.0 0.00 0.00 0.00 14 1018.8
20200226090657 60 270 1.0 3.0 0.00 0.00 0.00 14 1019.0
20200226090640 59 292 4.0 4.0 0.00 0.00 0.00 14 1018.8
20200226090623 60 270 1.0 3.0 0.00 0.00 0.00 14 1019.0
20200226090605 59 292 3.0 6.0 0.00 0.00 0.00 14 1018.8
20200226090545 59 292 3.0 5.0 0.00 0.00 0.00 15 1019.0
20200226090527 59 292 3.0 6.0 0.00 0.00 0.00 14 1018.8
20200226090508 60 270 1.0 3.0 0.00 0.00 0.00 14 1018.9
20200226090450 59 292 4.0 4.0 0.00 0.00 0.00 14 1018.8
20200226090434 59 292 3.0 6.0 0.00 0.00 0.00 14 1018.8
20200226090431 60 270 1.0 3.0 0.00 0.00 0.00 14 1018.9
20200226090412 59 292 4.0 4.0 0.00 0.00 0.00 14 1018.8
20200226090352 59 292 3.0 5.0 0.00 0.00 0.00 15 1019.0
20200226090332 59 292 4.0 4.0 0.00 0.00 0.00 14 1018.8
20200226090310 59 292 3.0 5.0 0.00 0.00 0.00 15 1019.0
20200226090248 59 292 4.0 4.0 0.00 0.00 0.00 14 1018.8
20200226090226 60 270 3.0 3.0 0.00 0.00 0.00 14 1018.8
20200226090204 59 292 4.0 4.0 0.00 0.00 0.00 14 1018.8
20200226090142 60 270 1.0 3.0 0.00 0.00 0.00 14 1018.9
20200226090134 59 292 4.0 6.0 0.00 0.00 0.00 15 1018.8
20200226090119 59 292 4.0 4.0 0.00 0.00 0.00 14 1018.8
20200226090055 59 292 3.0 5.0 0.00 0.00 0.00 15 1019.0
20200226090032 59 292 4.0 4.0 0.00 0.00 0.00 14 1018.8
20200226090008 60 270 1.0 3.0 0.00 0.00 0.00 14 1018.9
20200226085945 59 292 4.0 4.0 0.00 0.00 0.00 14 1018.8
20200226085921 60 270 1.0 3.0 0.00 0.00 0.00 14 1018.9
20200226085856 59 292 4.0 4.0 0.00 0.00 0.00 14 1018.8
20200226085833 59 292 3.0 5.0 0.00 0.00 0.00 14 1019.0
20200226085831 59 292 2.0 4.0 0.00 0.00 0.00 15 1018.9
20200226085806 59 292 4.0 4.0 0.00 0.00 0.00 14 1018.8
20200226085739 60 270 1.0 3.0 0.00 0.00 0.00 14 1018.9
20200226085712 59 292 4.0 4.0 0.00 0.00 0.00 14 1018.8
20200226085645 59 292 2.0 4.0 0.00 0.00 0.00 15 1018.9
20200226085617 59 292 4.0 4.0 0.00 0.00 0.00 14 1018.8
20200226085548 60 270 1.0 3.0 0.00 0.00 0.00 14 1019.0
20200226085533 59 292 4.0 4.0 0.00 0.00 0.00 14 1018.8
20200226085452 59 292 3.0 5.0 0.00 0.00 0.00 15 1019.0
20200226085351 60 270 3.0 3.0 0.00 0.00 0.00 14 1018.8
20200226085320 60 270 3.0 3.0 0.00 0.00 0.00 14 1018.8
20200226085248 60 270 1.0 3.0 0.00 0.00 0.00 14 1019.0
20200226085216 60 270 1.0 3.0 0.00 0.00 0.00 14 1018.9
20200226085143 60 270 1.0 3.0 0.00 0.00 0.00 14 1019.0
20200226085110 59 292 3.0 5.0 0.00 0.00 0.00 15 1019.0
20200226085035 59 292 2.0 4.0 0.00 0.00 0.00 15 1018.9
20200226085000 60 270 3.0 3.0 0.00 0.00 0.00 14 1018.8
20200226084959 60 270 1.0 3.0 0.00 0.00 0.00 14 1019.0
20200226084930 59 292 3.0 5.0 0.00 0.00 0.00 15 1019.0
20200226084923 59 292 2.0 4.0 0.00 0.00 0.00 15 1018.9
20200226084846 59 292 2.0 4.0 0.00 0.00 0.00 15 1018.9
20200226084810 59 292 2.0 4.0 0.00 0.00 0.00 15 1018.9
20200226084732 60 270 3.0 3.0 0.00 0.00 0.00 14 1018.8
20200226084653 60 270 3.0 3.0 0.00 0.00 0.00 14 1018.8
20200226084627 59 292 2.0 4.0 0.00 0.00 0.00 15 1018.9
20200226084614 60 270 3.0 3.0 0.00 0.00 0.00 14 1018.8
20200226084534 60 270 1.0 3.0 0.00 0.00 0.00 14 1019.0
20200226084452 60 270 3.0 3.0 0.00 0.00 0.00 14 1018.8
20200226084411 60 270 1.0 3.0 0.00 0.00 0.00 14 1019.0
20200226084328 60 270 1.0 3.0 0.00 0.00 0.00 14 1019.0
20200226084244 60 270 1.0 3.0 0.00 0.00 0.00 14 1018.9
20200226084201 60 270 1.0 3.0 0.00 0.00 0.00 14 1018.9
20200226084118 60 270 1.0 3.0 0.00 0.00 0.00 14 1019.0
20200226084035 60 270 1.0 3.0 0.00 0.00 0.00 14 1019.0
20200226084027 60 270 2.0 3.0 0.00 0.00 0.00 14 1018.9
20200226083950 60 270 3.0 3.0 0.00 0.00 0.00 14 1018.8
20200226083905 60 270 1.0 3.0 0.00 0.00 0.00 14 1018.9
20200226083821 60 270 1.0 3.0 0.00 0.00 0.00 14 1019.0
20200226083734 60 270 1.0 3.0 0.00 0.00 0.00 14 1018.9
20200226083724 60 270 3.0 3.0 0.00 0.00 0.00 14 1018.8
20200226083646 60 270 1.0 3.0 0.00 0.00 0.00 14 1019.0
20200226083557 60 270 1.0 3.0 0.00 0.00 0.00 14 1018.9
20200226083507 60 270 1.0 3.0 0.00 0.00 0.00 14 1018.9
20200226083424 60 270 1.0 3.0 0.00 0.00 0.00 14 1019.0
20200226083417 60 270 1.0 3.0 0.00 0.00 0.00 14 1018.9
20200226083324 60 270 1.0 3.0 0.00 0.00 0.00 14 1018.9
20200226083231 60 270 1.0 3.0 0.00 0.00 0.00 14 1018.9
20200226083122 60 270 1.0 3.0 0.00 0.00 0.00 14 1018.9
20200226082922 60 0 2.0 4.0 0.00 0.00 0.00 14 1019.0
20200226082709 60 270 3.0 4.0 0.00 0.00 0.00 13 1019.0
20200226082522 60 270 3.0 4.0 0.00 0.00 0.00 13 1019.0
20200226082218 60 0 2.0 4.0 0.00 0.00 0.00 14 1019.0
20200226082045 60 0 4.0 6.0 0.00 0.00 0.00 14 1018.9
20200226081317 60 0 3.0 6.0 0.00 0.00 0.00 13 1018.8
20200226081014 60 0 5.0 7.0 0.00 0.00 0.00 14 1019.0
20200226080713 60 0 4.0 6.0 0.00 0.00 0.00 14 1018.9
20200226080415 60 0 3.0 7.0 0.00 0.00 0.00 14 1018.9
20200226080110 60 0 4.0 6.0 0.00 0.00 0.00 14 1018.8
20200226075209 61 0 3.0 4.0 0.00 0.00 0.00 14 1018.8
20200226074906 61 0 4.0 4.0 0.00 0.00 0.00 14 1018.8
20200226074605 61 0 3.0 4.0 0.00 0.00 0.00 14 1018.8
20200226074304 61 0 4.0 7.0 0.00 0.00 0.00 13 1018.8
20200226074003 61 0 5.0 7.0 0.00 0.00 0.00 13 1018.6
20200226073101 61 0 6.0 8.0 0.00 0.00 0.00 14 1018.7
20200226072920 61 0 4.0 8.0 0.00 0.00 0.00 14 1018.7
20200226072500 61 0 5.0 8.0 0.00 0.00 0.00 13 1018.9
20200226072158 61 0 4.0 8.0 0.00 0.00 0.00 14 1018.7
20200226072045 62 0 4.0 6.0 0.00 0.00 0.00 13 1018.7
20200226071559 62 0 5.0 5.0 0.00 0.00 0.00 13 1018.7
20200226071257 62 0 3.0 5.0 0.00 0.00 0.00 13 1018.8
20200226070651 62 0 4.0 6.0 0.00 0.00 0.00 13 1018.7
20200226070350 62 0 4.0 7.0 0.00 0.00 0.00 13 1019.0
20200226065751 62 0 4.0 7.0 0.00 0.00 0.00 13 1019.0
20200226065147 62 0 5.0 5.0 0.00 0.00 0.00 13 1018.8
20200226064847 62 0 3.0 4.0 0.00 0.00 0.00 13 1018.8
20200226064546 62 0 2.0 4.0 0.00 0.00 0.00 13 1018.8
20200226063037 62 0 2.0 3.0 0.00 0.00 0.00 13 1018.6
20200226062435 63 0 4.0 7.0 0.00 0.00 0.00 13 1018.7
20200226062136 63 0 3.0 7.0 0.00 0.00 0.00 13 1018.7
20200226062044 64 0 3.0 6.0 0.00 0.00 0.00 13 1018.5
20200226061833 63 0 4.0 7.0 0.00 0.00 0.00 13 1018.8
20200226061422 63 0 6.0 6.0 0.00 0.00 0.00 13 1018.5
20200226061231 63 0 6.0 6.0 0.00 0.00 0.00 13 1018.5
20200226060635 64 0 3.0 6.0 0.00 0.00 0.00 13 1018.5
20200226060327 64 0 3.0 6.0 0.00 0.00 0.00 13 1018.5
20200226060028 64 0 3.0 4.0 0.00 0.00 0.00 13 1018.5
20200226055725 64 0 3.0 3.0 0.00 0.00 0.00 13 1018.5
20200226055709 64 0 2.0 4.0 0.00 0.00 0.00 13 1018.6
20200226055426 64 0 2.0 4.0 0.00 0.00 0.00 13 1018.6
20200226055043 65 0 6.0 8.0 0.00 0.00 0.00 13 1018.4
20200226054521 65 0 3.0 7.0 0.00 0.00 0.00 13 1018.4
20200226054221 65 0 4.0 7.0 0.00 0.00 0.00 13 1018.6
20200226053623 65 0 6.0 8.0 0.00 0.00 0.00 13 1018.4
20200226053318 64 0 6.0 8.0 0.00 0.00 0.00 13 1018.4
20200226052716 65 0 6.0 6.0 0.00 0.00 0.00 14 1018.4
20200226052415 65 0 4.0 7.0 0.00 0.00 0.00 13 1018.3
20200226052043 65 337 6.0 7.0 0.00 0.00 0.00 14 1018.3
20200226051811 65 0 7.0 7.0 0.00 0.00 0.00 13 1018.4
20200226051513 65 0 5.0 5.0 0.00 0.00 0.00 14 1018.3
20200226051210 65 0 3.0 6.0 0.00 0.00 0.00 14 1018.3
20200226050909 65 337 5.0 6.0 0.00 0.00 0.00 14 1018.3
20200226050606 65 337 6.0 7.0 0.00 0.00 0.00 14 1018.3
20200226050305 65 337 6.0 7.0 0.00 0.00 0.00 14 1018.1
20200226050004 65 337 6.0 8.0 0.00 0.00 0.00 14 1018.1
20200226045706 65 337 6.0 8.0 0.00 0.00 0.00 14 1018.1
20200226045043 65 337 6.0 8.0 0.00 0.00 0.00 15 1017.7
20200226044500 65 337 6.0 8.0 0.00 0.00 0.00 14 1017.9
20200226043555 65 337 6.0 8.0 0.00 0.00 0.00 15 1017.7
20200226042953 65 337 8.0 8.0 0.00 0.00 0.00 15 1017.7
20200226042351 65 337 5.0 7.0 0.00 0.00 0.00 15 1017.5
20200226042043 65 337 3.0 6.0 0.00 0.00 0.00 15 1017.4
20200226041752 65 337 4.0 6.0 0.00 0.00 0.00 15 1017.4
20200226041448 65 337 4.0 6.0 0.00 0.00 0.00 15 1017.3
20200226041147 65 337 5.0 6.0 0.00 0.00 0.00 15 1017.4
20200226040845 65 337 5.0 6.0 0.00 0.00 0.00 15 1017.4
20200226040548 65 337 3.0 6.0 0.00 0.00 0.00 15 1017.4
20200226035945 65 337 5.0 5.0 0.00 0.00 0.00 15 1017.3
20200226035911 66 337 4.0 6.0 0.00 0.00 0.00 15 1017.4
20200226035345 66 337 6.0 6.0 0.00 0.00 0.00 15 1017.3
20200226035041 66 337 4.0 6.0 0.00 0.00 0.00 15 1017.4
20200226034738 66 337 6.0 6.0 0.00 0.00 0.00 15 1017.4
20200226034138 66 337 4.0 4.0 0.00 0.00 0.00 15 1017.4
20200226033837 66 337 2.0 6.0 0.00 0.00 0.00 15 1017.4
20200226033535 66 337 3.0 5.0 0.00 0.00 0.00 15 1017.4
20200226033234 66 337 3.0 5.0 0.00 0.00 0.00 15 1017.4
20200226032329 66 337 3.0 5.0 0.00 0.00 0.00 15 1017.3
20200226031727 66 337 4.0 6.0 0.00 0.00 0.00 16 1017.2
20200226031426 66 337 3.0 5.0 0.00 0.00 0.00 16 1017.1
20200226030824 66 337 4.0 5.0 0.00 0.00 0.00 16 1016.9
20200226030527 66 337 4.0 6.0 0.00 0.00 0.00 16 1017.0
20200226025922 66 337 5.0 6.0 0.00 0.00 0.00 16 1016.9
20200226025621 66 315 5.0 6.0 0.00 0.00 0.00 16 1016.9
20200226024718 66 315 5.0 7.0 0.00 0.00 0.00 16 1016.9
20200226024416 66 315 4.0 7.0 0.00 0.00 0.00 16 1016.8
20200226024113 66 315 3.0 5.0 0.00 0.00 0.00 16 1016.8
20200226023511 66 315 3.0 4.0 0.00 0.00 0.00 16 1016.7
20200226022914 66 315 3.0 3.0 0.00 0.00 0.00 16 1016.6
20200226022007 67 315 2.0 3.0 0.00 0.00 0.00 16 1016.5
20200226021705 67 315 1.0 2.0 0.00 0.00 0.00 16 1016.4
20200226021105 68 315 1.0 2.0 0.00 0.00 0.00 16 1016.2
20200226020505 68 315 1.0 3.0 0.00 0.00 0.00 15 1016.2
20200226020201 69 315 3.0 3.0 0.00 0.00 0.00 16 1016.2
20200226015902 69 315 2.0 3.0 0.00 0.00 0.00 15 1016.1
20200226015557 69 315 1.0 2.0 0.00 0.00 0.00 15 1016.0
20200226015259 70 315 1.0 2.0 0.00 0.00 0.00 15 1016.1
20200226014955 70 315 0.0 2.0 0.00 0.00 0.00 15 1016.0
20200226014655 71 315 1.0 2.0 0.00 0.00 0.00 15 1016.0
20200226013752 72 315 2.0 2.0 0.00 0.00 0.00 14 1016.1
20200226012548 73 337 2.0 5.0 0.00 0.00 0.00 14 1015.8
20200226011945 73 315 2.0 4.0 0.00 0.00 0.00 13 1015.8
20200226011644 74 315 3.0 4.0 0.00 0.00 0.00 13 1015.6
20200226011343 74 315 3.0 6.0 0.00 0.00 0.00 13 1015.8
20200226011042 74 315 3.0 12.0 0.00 0.00 0.00 12 1015.7
20200226010140 75 0 2.0 4.0 0.00 0.00 0.00 13 1015.9
20200226005836 75 90 4.0 6.0 0.00 0.00 0.00 13 1015.8
20200226005235 75 45 4.0 11.0 0.00 0.00 0.00 12 1015.9
20200226004934 75 90 5.0 10.0 0.00 0.00 0.00 11 1015.8
20200226004636 76 337 6.0 8.0 0.00 0.00 0.00 12 1015.6
20200226004332 76 337 3.0 9.0 0.00 0.00 0.00 12 1015.7
20200226003730 76 337 5.0 9.0 0.00 0.00 0.00 12 1015.7
20200226003429 77 337 6.0 12.0 0.00 0.00 0.00 12 1015.8
20200226003126 77 337 9.0 12.0 0.00 0.00 0.00 11 1015.8
20200226002906 78 315 3.0 12.0 0.00 0.00 0.00 12 1015.8
20200226002827 78 337 4.0 11.0 0.00 0.00 0.00 12 1015.7
20200226002526 78 337 10.0 10.0 0.00 0.00 0.00 12 1015.7
20200226002223 78 315 3.0 12.0 0.00 0.00 0.00 12 1015.8
20200226001922 78 315 9.0 12.0 0.00 0.00 0.00 11 1015.6
20200226001321 79 337 7.0 14.0 0.00 0.00 0.00 11 1015.7
20200226001018 79 0 8.0 13.0 0.00 0.00 0.00 10 1015.5
20200226000719 79 0 7.0 12.0 0.00 0.00 0.00 11 1015.7
20200226000416 79 0 5.0 11.0 0.00 0.00 0.00 11 1015.6
20200226000116 79 0 5.0 12.0 0.00 0.00 0.00 11 1015.6
20200225235816 79 0 7.0 17.0 0.00 0.00 0.00 10 1015.6
20200225234609 79 0 8.0 10.0 0.00 0.00 0.00 11 1015.6
20200225234311 79 0 9.0 15.0 0.00 0.00 0.00 11 1015.7
20200225234009 79 355 15.0 18.0 0.00 0.00 0.00 10 1015.8
20200225233707 79 337 10.0 11.0 0.00 0.00 0.00 12 1015.8
20200225232904 80 337 14.0 15.0 0.00 0.00 0.00 1015.7
20200225232537 80 337 9.0 15.0 0.00 0.00 0.00 11 1015.9
20200225232503 80 337 9.0 15.0 0.00 0.00 0.00 11 1015.9
20200225232235 80 337 14.0 15.0 0.00 0.00 0.00 11 1015.7
20200225232201 80 337 14.0 15.0 0.00 0.00 0.00 11 1015.7
20200225231951 80 337 5.0 15.0 0.00 0.00 0.00 11 1015.9
20200225231901 80 337 5.0 15.0 0.00 0.00 0.00 11 1015.9
20200225231558 80 337 12.0 19.0 0.00 0.00 0.00 11 1015.6
20200225230958 80 337 6.0 20.0 0.00 0.00 0.00 11 1015.8
20200225230055 80 337 8.0 13.0 0.00 0.00 0.00 11 1016.0
20200225225452 80 337 15.0 15.0 0.00 0.00 0.00 11 1015.8
20200225224850 79 337 3.0 8.0 0.00 0.00 0.00 12 1015.8
20200225224549 79 337 5.0 21.0 0.00 0.00 0.00 11 1015.7
20200225224248 79 337 16.0 21.0 0.00 0.00 0.00 10 1015.7
20200225223719 80 337 11.0 16.0 0.00 0.00 0.00 11 1015.8
20200225223646 80 337 11.0 16.0 0.00 0.00 0.00 11 1015.8
20200225223132 80 337 12.0 20.0 0.00 0.00 0.00 11 1015.6
20200225223042 80 337 12.0 20.0 0.00 0.00 0.00 11 1015.6
20200225222815 80 337 12.0 18.0 0.00 0.00 0.00 11 1015.8
20200225222742 80 337 12.0 18.0 0.00 0.00 0.00 11 1015.8
20200225222045 79 315 6.0 23.0 0.00 0.00 0.00 11 1015.6
20200225221837 80 337 16.0 17.0 0.00 0.00 0.00 12 1015.6
20200225221638 79 315 8.0 10.0 0.00 0.00 0.00 12 1015.6
20200225221541 79 315 8.0 10.0 0.00 0.00 0.00 12 1015.6
20200225221321 79 315 3.0 21.0 0.00 0.00 0.00 12 1015.8
20200225221238 79 315 3.0 21.0 0.00 0.00 0.00 12 1015.8
20200225220709 79 315 6.0 23.0 0.00 0.00 0.00 11 1015.6
20200225220635 79 315 6.0 23.0 0.00 0.00 0.00 11 1015.6
20200225220334 79 315 14.0 16.0 0.00 0.00 0.00 12 1015.7
20200225220107 79 315 5.0 20.0 0.00 0.00 0.00 12 1015.7
20200225220033 79 315 5.0 20.0 0.00 0.00 0.00 12 1015.7
20200225215810 79 315 9.0 20.0 0.00 0.00 0.00 12 1015.6
20200225215730 79 315 9.0 20.0 0.00 0.00 0.00 12 1015.6
20200225215431 79 315 16.0 21.0 0.00 0.00 0.00 11 1015.8
20200225215130 79 315 12.0 21.0 0.00 0.00 0.00 11 1015.6
20200225215044 79 315 11.0 17.0 0.00 0.00 0.00 12 1015.6
20200225214829 79 315 16.0 18.0 0.00 0.00 0.00 11 1015.6
20200225214614 79 315 13.0 18.0 0.00 0.00 0.00 12 1015.7
20200225214527 79 315 13.0 18.0 0.00 0.00 0.00 12 1015.7
20200225214306 79 315 14.0 19.0 0.00 0.00 0.00 12 1015.7
20200225214224 79 315 14.0 19.0 0.00 0.00 0.00 12 1015.7
20200225213923 79 315 12.0 19.0 0.00 0.00 0.00 12 1015.6
20200225213702 79 315 11.0 17.0 0.00 0.00 0.00 12 1015.6
20200225213624 79 315 11.0 17.0 0.00 0.00 0.00 12 1015.6
20200225213324 78 315 12.0 17.0 0.00 0.00 0.00 12 1015.5
20200225213020 78 315 6.0 15.0 0.00 0.00 0.00 13 1015.7
20200225212719 78 315 7.0 19.0 0.00 0.00 0.00 12 1016.0
20200225212044 77 315 11.0 22.0 0.00 0.00 0.00 13 1016.3
20200225211817 77 315 22.0 26.0 0.00 0.00 0.00 12 1015.9
20200225210650 77 315 11.0 22.0 0.00 0.00 0.00 13 1016.3
20200225210613 77 315 11.0 22.0 0.00 0.00 0.00 13 1016.3
20200225210049 77 315 10.0 24.0 0.00 0.00 0.00 14 1016.4
20200225210009 77 315 10.0 24.0 0.00 0.00 0.00 14 1016.4
20200225205858 76 315 19.0 24.0 0.00 0.00 0.00 13 1016.2
20200225205140 76 315 19.0 24.0 0.00 0.00 0.00 13 1016.2
20200225205107 76 315 19.0 24.0 0.00 0.00 0.00 13 1016.2
20200225204835 77 315 20.0 25.0 0.00 0.00 0.00 13 1016.3
20200225204805 77 315 20.0 25.0 0.00 0.00 0.00 13 1016.3
20200225203957 77 315 18.0 28.0 0.00 0.00 0.00 13 1016.5
20200225203903 77 315 18.0 28.0 0.00 0.00 0.00 13 1016.5
20200225203344 77 337 19.0 21.0 0.00 0.00 0.00 13 1016.6
20200225203300 77 337 19.0 21.0 0.00 0.00 0.00 13 1016.6
20200225203032 77 337 4.0 27.0 0.00 0.00 0.00 13 1016.3
20200225202958 77 337 4.0 27.0 0.00 0.00 0.00 13 1016.3
20200225202658 77 337 20.0 27.0 0.00 0.00 0.00 12 1016.4
20200225202056 77 337 11.0 25.0 0.00 0.00 0.00 13 1016.4
20200225201833 77 337 20.0 25.0 0.00 0.00 0.00 12 1016.2
20200225201755 77 337 20.0 25.0 0.00 0.00 0.00 12 1016.2
20200225201454 78 337 14.0 22.0 0.00 0.00 0.00 13 1016.5
20200225201226 78 337 11.0 16.0 0.00 0.00 0.00 13 1016.6
20200225201153 78 337 11.0 16.0 0.00 0.00 0.00 13 1016.6
20200225200925 77 337 14.0 19.0 0.00 0.00 0.00 13 1016.8
20200225200852 77 337 14.0 19.0 0.00 0.00 0.00 13 1016.8
20200225195947 77 337 11.0 20.0 0.00 0.00 0.00 12 1016.9
20200225195043 77 315 9.0 26.0 0.00 0.00 0.00 13 1017.4
20200225194747 76 337 12.0 20.0 0.00 0.00 0.00 13 1017.0
20200225194223 76 315 6.0 28.0 0.00 0.00 0.00 13 1017.2
20200225194143 76 315 6.0 28.0 0.00 0.00 0.00 13 1017.2
20200225193625 77 315 9.0 26.0 0.00 0.00 0.00 13 1017.4
20200225193540 77 315 9.0 26.0 0.00 0.00 0.00 13 1017.4
20200225193238 77 315 19.0 26.0 0.00 0.00 0.00 13 1017.4
20200225193014 76 315 9.0 18.0 0.00 0.00 0.00 14 1017.5
20200225192936 76 315 9.0 18.0 0.00 0.00 0.00 14 1017.5
20200225192727 76 315 8.0 22.0 0.00 0.00 0.00 13 1017.4
20200225192636 76 315 8.0 22.0 0.00 0.00 0.00 13 1017.4
20200225192430 76 315 17.0 28.0 0.00 0.00 0.00 12 1017.5
20200225192335 76 315 17.0 28.0 0.00 0.00 0.00 12 1017.5
20200225191827 76 315 4.0 17.0 0.00 0.00 0.00 14 1017.5
20200225191731 76 315 4.0 17.0 0.00 0.00 0.00 14 1017.5
20200225191433 76 337 12.0 17.0 0.00 0.00 0.00 13 1017.4
20200225191132 76 337 14.0 27.0 0.00 0.00 0.00 14 1017.4
20200225190829 76 337 17.0 27.0 0.00 0.00 0.00 13 1017.5
20200225190611 76 337 15.0 16.0 0.00 0.00 0.00 13 1017.4
20200225190528 76 337 15.0 16.0 0.00 0.00 0.00 13 1017.4
20200225190302 76 337 11.0 22.0 0.00 0.00 0.00 13 1017.5
20200225190227 76 337 11.0 22.0 0.00 0.00 0.00 13 1017.5
20200225190001 76 337 14.0 16.0 0.00 0.00 0.00 13 1017.3
20200225185926 76 337 14.0 16.0 0.00 0.00 0.00 13 1017.3
20200225185718 76 337 10.0 20.0 0.00 0.00 0.00 14 1017.5
20200225185630 76 337 10.0 20.0 0.00 0.00 0.00 14 1017.5
20200225185100 76 337 17.0 19.0 0.00 0.00 0.00 13 1017.3
20200225185021 76 337 17.0 19.0 0.00 0.00 0.00 13 1017.3
20200225184720 76 337 16.0 19.0 0.00 0.00 0.00 13 1017.3
20200225184206 75 0 6.0 15.0 0.00 0.00 0.00 16 1017.4
20200225184118 75 0 6.0 15.0 0.00 0.00 0.00 16 1017.4
20200225183905 75 0 9.0 21.0 0.00 0.00 0.00 15 1017.5
20200225183817 75 0 9.0 21.0 0.00 0.00 0.00 15 1017.5
20200225182917 74 0 13.0 24.0 0.00 0.00 0.00 14 1017.4
20200225182011 74 0 12.0 22.0 0.00 0.00 0.00 15 1017.2
20200225181709 73 0 19.0 19.0 0.00 0.00 0.00 15 1017.3
20200225181108 73 0 15.0 28.0 0.00 0.00 0.00 15 1017.0
20200225175904 73 337 9.0 26.0 0.00 0.00 0.00 16 1017.1
20200225175633 74 337 16.0 24.0 0.00 0.00 0.00 16 1017.2
20200225175601 74 337 16.0 24.0 0.00 0.00 0.00 16 1017.2
20200225175302 74 337 11.0 27.0 0.00 0.00 0.00 17 1017.0
20200225175001 74 337 16.0 27.0 0.00 0.00 0.00 16 1017.2
20200225174128 73 315 21.0 21.0 0.00 0.00 0.00 16 1016.7
20200225174056 73 315 21.0 21.0 0.00 0.00 0.00 16 1016.7
20200225173756 73 315 7.0 16.0 0.00 0.00 0.00 17 1017.1